Omak, WA

7:15 AM PST on December 12, 2017 (GMT -0800)
Omak

Weather History for KOMK - June, 2014

Change the Weather History Date:

Saturday, June 7, 2014

  Actual Average Record
Temperature  
Mean Temperature 67 °F 64 °F  
Max Temperature 85 °F 78 °F 99 °F (1931)
Min Temperature 49 °F 50 °F 32 °F (1960)
Degree Days  
Heating Degree Days 0 3  
Month to date heating degree days 1 25  
Since 1 June heating degree days 1 25  
Since 1 July heating degree days 6381 6298  
Cooling Degree Days 2 2  
Month to date cooling degree days 15 13  
Year to date cooling degree days 29 36  
Since 1 June cooling degree days 15 13  
Growing Degree Days 18 (Base 50)    
Moisture  
Dew Point 32 °F    
Average Humidity 33    
Maximum Humidity 52    
Minimum Humidity 14    
Precipitation  
Precipitation 0.00 in 0.03 in 1.06 in (1941)
Month to date precipitation T 0.25  
Year to date precipitation 4.64 7.00  
Sea Level Pressure  
Sea Level Pressure 30.00 in    
Wind  
Wind Speed 9 mph (North)    
Max Wind Speed 18 mph    
Max Gust Speed 23 mph    
Visibility 10 miles    
Events      
T = Trace of Precipitation, MM = Missing Value Source: NWS Daily Summary

Daily Weather History Graph

Daily Weather History Graph

Search for Another Location

Airport or City:

Trip Planner

Search our weather history database for the weather conditions in past years. The results will help you decide how hot, cold, wet, or windy it might be!

Date:

Astronomy

Jun. 07, 2014 Rise Set
Actual Time 4:57 AM PDT 8:56 PM PDT
Civil Twilight 4:16 AM PDT 9:38 PM PDT
Nautical Twilight 3:19 AM PDT 10:35 PM PDT
Astronomical Twilight 1:44 AM PDT 12:12 AM PDT
Moon 2:54 PM PDT (6/7) 1:49 AM PDT (6/7)
Length of Visible Light 17h 21m
Length of Day
15h 59m
Waxing Gibbous, 69% of the Moon is Illuminated
Jun 7
Waxing Gibbous
Jun 12
Full
Jun 19
Last Quarter
Jun 27
New
Jul 5
First Quarter

Hourly Weather History & Observations

Time (PDT) Temp. Dew Point Humidity Pressure Visibility Wind Dir Wind Speed Gust Speed Precip Events Conditions
12:53 AM 59.0 °F 33.1 °F 38% 29.99 in 10.0 mi WNW 12.7 mph - N/A   Clear
1:53 AM 57.0 °F 32.0 °F 39% 30.00 in 10.0 mi NW 9.2 mph - N/A   Clear
2:53 AM 54.0 °F 32.0 °F 43% 30.00 in 10.0 mi NNW 6.9 mph - N/A   Clear
3:53 AM 52.0 °F 33.1 °F 49% 30.02 in 10.0 mi NW 8.1 mph - N/A   Clear
6:53 AM 60.1 °F 35.1 °F 39% 30.03 in 10.0 mi NNW 9.2 mph - N/A   Clear
7:53 AM 63.0 °F 34.0 °F 34% 30.04 in 10.0 mi NNW 10.4 mph - N/A   Clear
8:53 AM 69.1 °F 35.1 °F 29% 30.05 in 10.0 mi North 11.5 mph - N/A   Clear
9:53 AM 73.0 °F 33.1 °F 23% 30.04 in 10.0 mi North 12.7 mph - N/A   Clear
10:53 AM 75.0 °F 30.9 °F 20% 30.02 in 10.0 mi North 13.8 mph 21.9 mph N/A   Clear
11:53 AM 79.0 °F 30.0 °F 17% 30.01 in 10.0 mi NNE 12.7 mph - N/A   Clear
12:53 PM 81.0 °F 28.9 °F 15% 30.00 in 10.0 mi North 11.5 mph - N/A   Clear
1:53 PM 82.9 °F 28.9 °F 14% 29.99 in 10.0 mi NE 9.2 mph 16.1 mph N/A   Clear
2:53 PM 81.0 °F 30.0 °F 16% 29.98 in 10.0 mi North 8.1 mph 19.6 mph N/A   Clear
3:53 PM 81.0 °F 30.9 °F 16% 29.97 in 10.0 mi NE 8.1 mph - N/A   Clear
4:53 PM 84.0 °F 32.0 °F 15% 29.96 in 10.0 mi North 5.8 mph - N/A   Clear
5:53 PM 81.0 °F 32.0 °F 17% 29.95 in 10.0 mi North 6.9 mph - N/A   Clear
6:53 PM 80.1 °F 30.9 °F 17% 29.95 in 10.0 mi North 8.1 mph - N/A   Clear
7:53 PM 75.9 °F 32.0 °F 20% 29.95 in 10.0 mi North 6.9 mph - N/A   Clear
8:53 PM 73.0 °F 32.0 °F 22% 29.96 in 10.0 mi North 8.1 mph - N/A   Overcast
9:53 PM 73.0 °F 33.1 °F 23% 29.99 in 10.0 mi North 15.0 mph - N/A   Mostly Cloudy
10:53 PM 66.0 °F 36.0 °F 33% 30.00 in 10.0 mi NW 8.1 mph - N/A   Clear
11:53 PM 63.0 °F 39.0 °F 41% 30.02 in 10.0 mi WNW 9.2 mph - N/A   Clear